| time (UTC) | temp F | wind direction | speed knots | gust knots | rain 1hr in | rain 24hr in | rain mn in | humidity % | barometer mb |
| 20260504193016 | 76 | 137 | 7.8 | 16.5 | 0.00 | 0.00 | 0.00 | 33 | 1008.5 |
| 20260504190016 | 75 | 139 | 7.0 | 15.6 | 0.00 | 0.00 | 0.00 | 34 | 1008.7 |
| 20260504183016 | 75 | 142 | 6.1 | 12.2 | 0.00 | 0.00 | 0.00 | 35 | 1008.9 |
| 20260504180016 | 74 | 148 | 5.2 | 13.9 | 0.00 | 0.00 | 0.00 | 35 | 1009.0 |
| 20260504173016 | 73 | 155 | 7.0 | 13.9 | 0.00 | 0.00 | 0.00 | 35 | 1008.7 |
| 20260504050015 | 85 | 163 | 4.3 | 9.6 | 0.00 | 0.00 | 0.00 | 22 | 1002.9 |
| 20260504043015 | 86 | 169 | 4.3 | 13.0 | 0.00 | 0.00 | 0.00 | 21 | 1002.7 |
| 20260504040036 | 88 | 166 | 5.2 | 17.4 | 0.00 | 0.00 | 0.00 | 20 | 1002.4 |
| 20260504033015 | 89 | 175 | 7.0 | 17.4 | 0.00 | 0.00 | 0.00 | 20 | 1001.9 |
| 20260504030015 | 89 | 178 | 6.1 | 16.5 | 0.00 | 0.00 | 0.00 | 21 | 1001.5 |
| 20260504023017 | 91 | 174 | 6.1 | 19.1 | 0.00 | 0.00 | 0.00 | 19 | 1001.3 |
| 20260504020016 | 93 | 166 | 7.0 | 19.1 | 0.00 | 0.00 | 0.00 | 17 | 1001.2 |
| 20260504013016 | 94 | 166 | 6.1 | 19.1 | 0.00 | 0.00 | 0.00 | 16 | 1001.3 |
| 20260504010017 | 94 | 159 | 7.8 | 19.1 | 0.00 | 0.00 | 0.00 | 15 | 1001.5 |
| 20260504003016 | 95 | 167 | 7.8 | 19.1 | 0.00 | 0.00 | 0.00 | 14 | 1001.6 |
| 20260504000017 | 96 | 170 | 9.6 | 20.0 | 0.00 | 0.00 | 0.00 | 13 | 1001.8 |
| 20260503233017 | 97 | 178 | 8.7 | 20.0 | 0.00 | 0.00 | 0.00 | 12 | 1001.8 |
| 20260503230016 | 96 | 169 | 8.7 | 20.9 | 0.00 | 0.00 | 0.00 | 12 | 1002.1 |
| 20260503223017 | 97 | 176 | 8.7 | 20.9 | 0.00 | 0.00 | 0.00 | 12 | 1002.5 |
| 20260503220017 | 97 | 162 | 8.7 | 20.0 | 0.00 | 0.00 | 0.00 | 12 | 1002.9 |
| 20260503213016 | 96 | 173 | 9.6 | 21.7 | 0.00 | 0.00 | 0.00 | 12 | 1003.4 |
| 20260503210016 | 97 | 170 | 8.7 | 21.7 | 0.00 | 0.00 | 0.00 | 14 | 1003.7 |
| 20260503203016 | 95 | 138 | 7.8 | 17.4 | 0.00 | 0.00 | 0.00 | 17 | 1004.1 |
| 20260503200016 | 95 | 148 | 8.7 | 22.6 | 0.00 | 0.00 | 0.00 | 16 | 1004.7 |